EZY4PM EGCC-EGJB

Flight info

Callsign EZY4PM
Flight time 0h 47m
Altitude 34000
Route KUXEM P17 NOKIN N862 PACSE N92 WIGGU N864 ABBEW N90 ENHEL N862 SKERY
Aircraft A319/M-SDE3FGHIRWY/LB1

Departure

Time 2026-04-25 10:46
Airport Manchester Airport (EGCC)

Arrival

Time 2026-04-25 11:34
Airport Guernsey Airport (EGJB)
Time Latitude Longitude Altitude Speed Heading
2026-04-25 10:19 53.35929 -2.27523 255 ft 0 kts 96°
2026-04-25 10:36 53.35929 -2.27524 255 ft 1 kts 96°
2026-04-25 10:36 53.35933 -2.27563 255 ft 4 kts 106°
2026-04-25 10:37 53.35943 -2.27604 255 ft 4 kts 129°
2026-04-25 10:37 53.35962 -2.27630 255 ft 4 kts 172°
2026-04-25 10:37 53.35954 -2.27630 255 ft 4 kts 178°
2026-04-25 10:37 53.35933 -2.27629 255 ft 0 kts 179°
2026-04-25 10:40 53.35926 -2.27629 255 ft 3 kts 178°
2026-04-25 10:41 53.35892 -2.27631 255 ft 7 kts 183°
2026-04-25 10:41 53.35853 -2.27637 255 ft 4 kts 185°
2026-04-25 10:41 53.35812 -2.27641 255 ft 8 kts 182°
2026-04-25 10:41 53.35732 -2.27641 249 ft 15 kts 162°
2026-04-25 10:42 53.35642 -2.27548 246 ft 14 kts 141°
2026-04-25 10:42 53.35640 -2.27415 248 ft 12 kts 51°
2026-04-25 10:42 53.35673 -2.27354 254 ft 3 kts 50°
2026-04-25 10:42 53.35691 -2.27319 255 ft 9 kts 51°
2026-04-25 10:43 53.35753 -2.27181 255 ft 17 kts 50°
2026-04-25 10:43 53.35825 -2.27015 255 ft 18 kts 58°
2026-04-25 10:43 53.35897 -2.26848 256 ft 18 kts 49°
2026-04-25 10:43 53.35967 -2.26677 256 ft 18 kts 53°
2026-04-25 10:44 53.36046 -2.26515 256 ft 18 kts 51°
2026-04-25 10:44 53.36128 -2.26347 255 ft 19 kts 50°
2026-04-25 10:44 53.36221 -2.26188 255 ft 19 kts 45°
2026-04-25 10:44 53.36275 -2.25988 255 ft 19 kts 78°
2026-04-25 10:45 53.36280 -2.25803 258 ft 11 kts 110°
2026-04-25 10:45 53.36231 -2.25753 261 ft 9 kts 178°
2026-04-25 10:45 53.36172 -2.25842 259 ft 17 kts 231°
2026-04-25 10:45 53.35991 -2.26220 262 ft 76 kts 231°
2026-04-25 10:46 53.35519 -2.27199 250 ft 140 kts 231°
2026-04-25 10:46 53.34822 -2.28628 567 ft 161 kts 231°
2026-04-25 10:46 53.34124 -2.30078 1280 ft 159 kts 232°
2026-04-25 10:46 53.33412 -2.31578 1766 ft 174 kts 232°
2026-04-25 10:47 53.32625 -2.33223 2244 ft 188 kts 233°
2026-04-25 10:47 53.32169 -2.35366 2597 ft 210 kts 269°
2026-04-25 10:47 53.32254 -2.37928 3156 ft 230 kts 273°
2026-04-25 10:47 53.32351 -2.40718 3731 ft 250 kts 273°
2026-04-25 10:48 53.32424 -2.43675 4484 ft 260 kts 267°
2026-04-25 10:48 53.32026 -2.46650 5396 ft 266 kts 253°
2026-04-25 10:48 53.31475 -2.49646 6320 ft 271 kts 252°
2026-04-25 10:48 53.30911 -2.52627 7260 ft 274 kts 252°
2026-04-25 10:49 53.30320 -2.55684 8172 ft 278 kts 252°
2026-04-25 10:49 53.29703 -2.58776 9057 ft 282 kts 249°
2026-04-25 10:49 53.28927 -2.61803 9993 ft 283 kts 245°
2026-04-25 10:49 53.27927 -2.64659 10852 ft 288 kts 229°
2026-04-25 10:50 53.26393 -2.66792 11603 ft 297 kts 213°
2026-04-25 10:50 53.24596 -2.68777 11889 ft 321 kts 214°
2026-04-25 10:50 53.22696 -2.70921 12365 ft 334 kts 216°
2026-04-25 10:50 53.20761 -2.73152 13108 ft 339 kts 216°
2026-04-25 10:51 53.18830 -2.75402 13852 ft 342 kts 216°
2026-04-25 10:51 53.16863 -2.77691 14595 ft 345 kts 216°
2026-04-25 10:51 53.14871 -2.79998 15319 ft 349 kts 216°
2026-04-25 10:51 53.12897 -2.82275 16011 ft 351 kts 216°
2026-04-25 10:52 53.10869 -2.84608 16699 ft 354 kts 216°
2026-04-25 10:52 53.08736 -2.86713 17373 ft 358 kts 206°
2026-04-25 10:52 53.06395 -2.88068 18014 ft 362 kts 194°
2026-04-25 10:52 53.03876 -2.88622 18662 ft 367 kts 184°
2026-04-25 10:53 53.01338 -2.88826 19282 ft 370 kts 184°
2026-04-25 10:53 52.98751 -2.89038 19895 ft 373 kts 184°
2026-04-25 10:53 52.96132 -2.89257 20483 ft 376 kts 185°
2026-04-25 10:53 52.93531 -2.89482 21056 ft 379 kts 185°
2026-04-25 10:54 52.90890 -2.89716 21624 ft 382 kts 185°
2026-04-25 10:54 52.89120 -2.89922 21990 ft 383 kts 189°
2026-04-25 10:54 52.85563 -2.90747 22707 ft 387 kts 190°
2026-04-25 10:54 52.82871 -2.91378 23233 ft 390 kts 190°
2026-04-25 10:55 52.80171 -2.92017 23751 ft 393 kts 190°
2026-04-25 10:55 52.77489 -2.92651 24242 ft 396 kts 190°
2026-04-25 10:55 52.74743 -2.93302 24717 ft 398 kts 190°
2026-04-25 10:55 52.71983 -2.93950 25199 ft 401 kts 190°
2026-04-25 10:56 52.69187 -2.94297 25655 ft 404 kts 185°
2026-04-25 10:56 52.66371 -2.94522 26105 ft 406 kts 185°
2026-04-25 10:56 52.63530 -2.94754 26556 ft 408 kts 185°
2026-04-25 10:56 52.60689 -2.94990 26987 ft 410 kts 185°
2026-04-25 10:57 52.57868 -2.95228 27393 ft 412 kts 185°
2026-04-25 10:57 52.54984 -2.95467 27815 ft 414 kts 185°
2026-04-25 10:57 52.52096 -2.95699 28226 ft 416 kts 185°
2026-04-25 10:57 52.49190 -2.95930 28623 ft 418 kts 185°
2026-04-25 10:58 52.46279 -2.96165 29019 ft 419 kts 185°
2026-04-25 10:58 52.43394 -2.96405 29393 ft 421 kts 185°
2026-04-25 10:58 52.40455 -2.96652 29764 ft 423 kts 185°
2026-04-25 10:58 52.37504 -2.96898 30128 ft 424 kts 185°
2026-04-25 10:59 52.34547 -2.97146 30469 ft 426 kts 185°
2026-04-25 10:59 52.31601 -2.97390 30781 ft 428 kts 185°
2026-04-25 10:59 52.28614 -2.97633 31093 ft 431 kts 185°
2026-04-25 10:59 52.25602 -2.97876 31392 ft 433 kts 185°
2026-04-25 11:00 52.22580 -2.98120 31685 ft 435 kts 185°
2026-04-25 11:00 52.19552 -2.98365 32014 ft 435 kts 185°
2026-04-25 11:00 52.16564 -2.98605 32422 ft 434 kts 185°
2026-04-25 11:00 52.13535 -2.98845 32819 ft 433 kts 185°
2026-04-25 11:01 52.10545 -2.99089 33208 ft 432 kts 185°
2026-04-25 11:01 52.07541 -2.99337 33590 ft 431 kts 185°
2026-04-25 11:01 52.04537 -2.99584 33966 ft 431 kts 185°
2026-04-25 11:01 52.01540 -2.99829 34178 ft 431 kts 185°
2026-04-25 11:02 51.98568 -3.00069 34220 ft 422 kts 185°
2026-04-25 11:02 51.92784 -3.00529 34217 ft 415 kts 185°
2026-04-25 11:03 51.87008 -3.01022 34221 ft 414 kts 187°
2026-04-25 11:03 51.81322 -3.02067 34224 ft 413 kts 190°
2026-04-25 11:04 51.75627 -3.03439 34224 ft 413 kts 190°
2026-04-25 11:04 51.69924 -3.04743 34220 ft 413 kts 189°
2026-04-25 11:05 51.64241 -3.05926 34226 ft 413 kts 189°
2026-04-25 11:05 51.58515 -3.07075 34214 ft 413 kts 189°
2026-04-25 11:06 51.52838 -3.08222 34213 ft 413 kts 189°
2026-04-25 11:06 51.47113 -3.09395 34214 ft 413 kts 189°
2026-04-25 11:07 51.41433 -3.10587 34214 ft 413 kts 192°
2026-04-25 11:07 51.36058 -3.13550 34214 ft 408 kts 211°
2026-04-25 11:08 51.31480 -3.18903 34217 ft 407 kts 219°
2026-04-25 11:08 51.27052 -3.24487 34219 ft 407 kts 219°
2026-04-25 11:09 51.22583 -3.30059 34202 ft 408 kts 217°
2026-04-25 11:09 51.17493 -3.34122 34201 ft 412 kts 198°
2026-04-25 11:10 51.11842 -3.35614 34201 ft 414 kts 189°
2026-04-25 11:10 51.06108 -3.36753 34203 ft 415 kts 189°
2026-04-25 11:11 51.00399 -3.37892 34204 ft 415 kts 189°
2026-04-25 11:11 50.94648 -3.39045 34204 ft 415 kts 189°
2026-04-25 11:12 50.88934 -3.40186 33839 ft 419 kts 189°
2026-04-25 11:12 50.86039 -3.40762 33301 ft 416 kts 189°
2026-04-25 11:12 50.83175 -3.41329 32805 ft 413 kts 189°
2026-04-25 11:12 50.80328 -3.41891 32293 ft 410 kts 189°
2026-04-25 11:13 50.77506 -3.42444 31793 ft 407 kts 189°
2026-04-25 11:13 50.74738 -3.42988 31317 ft 403 kts 189°
2026-04-25 11:13 50.71956 -3.43536 30833 ft 400 kts 189°
2026-04-25 11:13 50.69197 -3.44079 30359 ft 397 kts 189°
2026-04-25 11:14 50.66462 -3.44616 29884 ft 393 kts 189°
2026-04-25 11:14 50.63756 -3.45146 29433 ft 390 kts 189°
2026-04-25 11:14 50.61091 -3.45665 28984 ft 387 kts 189°
2026-04-25 11:14 50.58427 -3.46185 28534 ft 384 kts 189°
2026-04-25 11:15 50.55775 -3.46698 28083 ft 382 kts 189°
2026-04-25 11:15 50.53133 -3.47081 27634 ft 381 kts 183°
2026-04-25 11:15 50.50487 -3.46726 27197 ft 383 kts 171°
2026-04-25 11:15 50.47957 -3.45564 26760 ft 384 kts 160°
2026-04-25 11:16 50.43979 -3.42437 26020 ft 382 kts 155°
2026-04-25 11:16 50.41619 -3.40521 25567 ft 380 kts 155°
2026-04-25 11:16 50.39270 -3.38623 25109 ft 378 kts 155°
2026-04-25 11:17 50.36926 -3.36731 24638 ft 376 kts 155°
2026-04-25 11:17 50.34607 -3.34854 24173 ft 374 kts 155°
2026-04-25 11:17 50.32314 -3.33000 23716 ft 372 kts 155°
2026-04-25 11:17 50.30015 -3.31149 23214 ft 371 kts 155°
2026-04-25 11:18 50.27716 -3.29300 22736 ft 369 kts 155°
2026-04-25 11:18 50.25435 -3.27469 22263 ft 368 kts 155°
2026-04-25 11:18 50.23150 -3.25797 21794 ft 365 kts 162°
2026-04-25 11:18 50.20688 -3.24747 21331 ft 360 kts 169°
2026-04-25 11:19 50.18281 -3.23888 20878 ft 359 kts 169°
2026-04-25 11:19 50.15849 -3.23019 20420 ft 357 kts 169°
2026-04-25 11:19 50.13431 -3.22145 19973 ft 355 kts 169°
2026-04-25 11:19 50.11052 -3.21282 19530 ft 353 kts 169°
2026-04-25 11:20 50.08660 -3.20413 19065 ft 351 kts 169°
2026-04-25 11:20 50.06291 -3.19558 18641 ft 349 kts 169°
2026-04-25 11:20 50.03925 -3.18711 18198 ft 347 kts 169°
2026-04-25 11:20 50.01570 -3.17863 17758 ft 346 kts 168°
2026-04-25 11:21 49.99320 -3.16526 17327 ft 347 kts 154°
2026-04-25 11:21 49.97295 -3.14542 16901 ft 347 kts 148°
2026-04-25 11:21 49.95283 -3.12465 16473 ft 346 kts 148°
2026-04-25 11:21 49.93270 -3.10402 16047 ft 344 kts 148°
2026-04-25 11:22 49.91293 -3.08382 15628 ft 342 kts 148°
2026-04-25 11:22 49.89293 -3.06345 15209 ft 342 kts 148°
2026-04-25 11:22 49.87308 -3.04327 14814 ft 339 kts 148°
2026-04-25 11:22 49.85362 -3.02346 14633 ft 327 kts 148°
2026-04-25 11:23 49.83497 -3.00451 14241 ft 321 kts 148°
2026-04-25 11:23 49.81633 -2.98558 13773 ft 317 kts 148°
2026-04-25 11:23 49.79788 -2.96684 13288 ft 315 kts 148°
2026-04-25 11:23 49.77985 -2.94851 12811 ft 312 kts 148°
2026-04-25 11:24 49.76174 -2.93017 12321 ft 310 kts 148°
2026-04-25 11:24 49.74291 -2.91440 11826 ft 305 kts 163°
2026-04-25 11:24 49.72218 -2.91119 11327 ft 300 kts 188°
2026-04-25 11:24 49.70205 -2.91956 10793 ft 298 kts 199°
2026-04-25 11:25 49.68250 -2.93018 10310 ft 295 kts 200°
2026-04-25 11:25 49.66337 -2.94080 9923 ft 289 kts 200°
2026-04-25 11:25 49.64452 -2.95134 9444 ft 287 kts 200°
2026-04-25 11:25 49.62606 -2.96175 8938 ft 285 kts 200°
2026-04-25 11:26 49.60747 -2.97229 8348 ft 283 kts 200°
2026-04-25 11:26 49.58900 -2.98269 7746 ft 281 kts 200°
2026-04-25 11:26 49.57066 -2.99300 7157 ft 278 kts 200°
2026-04-25 11:26 49.55259 -3.00324 6562 ft 275 kts 200°
2026-04-25 11:27 49.53495 -3.01326 5968 ft 272 kts 200°
2026-04-25 11:27 49.51723 -3.02331 5364 ft 270 kts 200°
2026-04-25 11:27 49.49898 -3.02799 4761 ft 266 kts 174°
2026-04-25 11:27 49.48716 -3.02353 4343 ft 264 kts 155°
2026-04-25 11:28 49.46841 -2.99974 3784 ft 260 kts 131°
2026-04-25 11:28 49.45646 -2.97939 3529 ft 252 kts 130°
2026-04-25 11:28 49.44517 -2.95991 3333 ft 242 kts 131°
2026-04-25 11:28 49.43435 -2.94075 3157 ft 232 kts 125°
2026-04-25 11:29 49.42763 -2.91907 3047 ft 219 kts 103°
2026-04-25 11:29 49.42636 -2.89637 3008 ft 210 kts 86°
2026-04-25 11:29 49.42705 -2.87426 3007 ft 201 kts 87°
2026-04-25 11:29 49.42767 -2.85349 3007 ft 194 kts 87°
2026-04-25 11:30 49.42829 -2.83292 2977 ft 192 kts 87°
2026-04-25 11:30 49.42889 -2.81257 2797 ft 189 kts 87°
2026-04-25 11:30 49.42949 -2.79258 2580 ft 185 kts 87°
2026-04-25 11:30 49.43005 -2.77354 2340 ft 176 kts 88°
2026-04-25 11:31 49.43058 -2.75551 2122 ft 158 kts 88°
2026-04-25 11:31 49.43104 -2.73954 1921 ft 141 kts 88°
2026-04-25 11:31 49.43147 -2.72486 1730 ft 134 kts 88°
2026-04-25 11:31 49.43189 -2.71094 1575 ft 131 kts 88°
2026-04-25 11:32 49.43225 -2.69706 1412 ft 129 kts 88°
2026-04-25 11:32 49.43262 -2.68324 1231 ft 129 kts 89°
2026-04-25 11:32 49.43303 -2.66948 1056 ft 129 kts 88°
2026-04-25 11:32 49.43345 -2.65581 909 ft 129 kts 89°
2026-04-25 11:33 49.43385 -2.64195 700 ft 129 kts 88°
2026-04-25 11:33 49.43425 -2.62817 538 ft 129 kts 88°
2026-04-25 11:33 49.43462 -2.61436 353 ft 129 kts 87°
2026-04-25 11:33 49.43499 -2.60184 317 ft 88 kts 87°
2026-04-25 11:34 49.43515 -2.59640 325 ft 32 kts 88°
2026-04-25 11:34 49.43521 -2.59383 333 ft 19 kts 89°
2026-04-25 11:34 49.43518 -2.59236 334 ft 10 kts 115°
2026-04-25 11:34 49.43453 -2.59205 330 ft 11 kts 179°
2026-04-25 11:35 49.43413 -2.59201 332 ft 3 kts 174°
2026-04-25 11:35 49.43386 -2.59207 331 ft 6 kts 210°
2026-04-25 11:35 49.43371 -2.59277 330 ft 8 kts 266°
2026-04-25 11:35 49.43367 -2.59376 331 ft 10 kts 267°
2026-04-25 11:36 49.43354 -2.59455 329 ft 6 kts 219°
2026-04-25 11:36 49.43313 -2.59457 329 ft 6 kts 177°
2026-04-25 11:36 49.43294 -2.59456 328 ft 0 kts 178°